Regional Weather Roundup
Issued by NWS

Home | Current Version | Previous Version | Text Only | Print | Product List | Glossary On
Versions: 1 2 3 4 5 6 7 8 9 10 11 12 13 14 15 16 17 18 19 20 21 22 23 24 25 26 27 28 29 30 31 32 33 34 35 36 37 38 39 40 41 42 43 44 45 46 47 48 49 50
000
ASUS43 KLMK 302110
RWRKY
KENTUCKY REGIONAL WEATHER ROUNDUP
NATIONAL WEATHER SERVICE LOUISVILLE KY
500 PM EDT TUE AUG 30 2016

NOTE "FAIR" INDICATES FEW OR NO CLOUDS BELOW 12,000 FEET
WITH NO SIGNIFICANT WEATHER AND/OR OBSTRUCTIONS TO VISIBILITY.

KYZ001>023-026-027-061>063-070>075-302200-
WESTERN AND SOUTH CENTRAL KENTUCKY

CITY           SKY/WX    TMP DP  RH WIND       PRES   REMARKS
PADUCAH        MOSUNNY   89  72  56 N8        30.03F HX  96
HENDERSON      SUNNY     91  70  49 E7        30.02F HX  97
OWENSBORO      MOSUNNY   92  71  50 N6        30.04F HX  98
HOPKINSVILLE   HVY RAIN  84  73  70 SE13      30.03F HX  91
BOWLING GREEN  MOSUNNY   90  71  53 NE6       30.03F HX  96
GLASGOW        MOSUNNY   90  71  52 NE5       30.04F HX  96
$$

KYZ024-025-028>034-038-045-046-053-302200-
NORTH CENTRAL KENTUCKY

CITY           SKY/WX    TMP DP  RH WIND       PRES   REMARKS
LOUISVILLE/SDF PTSUNNY   92  67  43 NW7       30.03F HX  95
LOUISVILLE/LOU PTSUNNY   93  66  40 NE6       30.04F HX  96
FORT KNOX      MOSUNNY   90  68  48 SE2       30.04F HX  93
$$

KYZ035>037-039>044-047>052-055>060-089>105-302200-
NORTHEAST KENTUCKY

CITY           SKY/WX    TMP DP  RH WIND       PRES   REMARKS
LEXINGTON      MOSUNNY   90  66  45 NW8       30.07F HX  92
COVINGTON      MOSUNNY   88  62  41 E6        30.07F
FRANKFORT      MOSUNNY   91  67  44 NW6       30.05F HX  94
$$

KYZ054-064>069-076>088-106>120-302200-
SOUTHEAST KENTUCKY

CITY           SKY/WX    TMP DP  RH WIND       PRES   REMARKS
JACKSON        SUNNY     86  70  58 CALM      30.09F HX  90
LONDON         MOSUNNY   91  66  43 N8        30.07F HX  93
SOMERSET       CLOUDY    86  68  54 CALM      30.07S
MIDDLESBORO    PTSUNNY   85  69  58 NE12      30.08R
MONTICELLO     MOCLDY   N/A N/A N/A W13       30.08S
$$





USA.gov is the U.S. government's official web portal to all federal, state and local government web resources and services.